WJA019 CYXY-CYVR

Flight info

Callsign WJA019
Flight time 2h 4m
Altitude 37000
Route KODEM4 VIGBO DCT MITOM DCT DUXAR DCT YYD DCT TRENA WHSLR8
Aircraft B738/M-SDE2E3FGHIRWXY/LB1

Departure

Time 2026-05-01 13:01
Airport Whitehorse / Erik Nielsen International Airport (CYXY)

Arrival

Time 2026-05-01 15:05
Airport Vancouver International Airport (CYVR)
Time Latitude Longitude Altitude Speed Heading
2026-05-01 12:22 60.71573 -135.07616 2288 ft 0 kts 241°
2026-05-01 12:53 60.71573 -135.07629 2288 ft 1 kts 269°
2026-05-01 12:53 60.71579 -135.07646 2288 ft 2 kts 315°
2026-05-01 12:53 60.71590 -135.07649 2292 ft 2 kts
2026-05-01 12:54 60.71601 -135.07636 2293 ft 2 kts 34°
2026-05-01 12:54 60.71632 -135.07558 2293 ft 4 kts 40°
2026-05-01 12:54 60.71663 -135.07554 2295 ft 5 kts 346°
2026-05-01 12:55 60.71759 -135.07624 2288 ft 9 kts 338°
2026-05-01 12:55 60.71821 -135.07675 2293 ft 10 kts 338°
2026-05-01 12:55 60.71876 -135.07700 2291 ft 5 kts 14°
2026-05-01 12:56 60.71891 -135.07672 2288 ft 1 kts 58°
2026-05-01 12:56 60.71891 -135.07671 2288 ft 0 kts 58°
2026-05-01 12:57 60.71892 -135.07670 2287 ft 1 kts 58°
2026-05-01 12:58 60.71902 -135.07631 2282 ft 6 kts 65°
2026-05-01 12:58 60.71921 -135.07542 2284 ft 6 kts 67°
2026-05-01 12:58 60.71924 -135.07496 2284 ft 3 kts 104°
2026-05-01 12:59 60.71898 -135.07456 2287 ft 0 kts 155°
2026-05-01 13:00 60.71694 -135.07298 2299 ft 76 kts 159°
2026-05-01 13:00 60.70916 -135.06696 2306 ft 160 kts 159°
2026-05-01 13:01 60.68391 -135.04725 3698 ft 213 kts 161°
2026-05-01 13:01 60.66992 -135.03669 4996 ft 221 kts 160°
2026-05-01 13:01 60.63847 -135.01264 6544 ft 251 kts 161°
2026-05-01 13:02 60.62286 -134.99571 7362 ft 262 kts 139°
2026-05-01 13:07 60.39521 -134.22103 23356 ft 354 kts 146°
2026-05-01 13:07 60.37555 -134.19153 23961 ft 358 kts 146°
2026-05-01 13:07 60.35546 -134.16138 24508 ft 361 kts 146°
2026-05-01 13:08 60.33525 -134.13106 25061 ft 363 kts 146°
2026-05-01 13:08 60.31484 -134.10049 25586 ft 366 kts 146°
2026-05-01 13:08 60.29427 -134.06971 26104 ft 370 kts 146°
2026-05-01 13:08 60.27353 -134.03874 26621 ft 373 kts 146°
2026-05-01 13:09 60.25262 -134.00756 27131 ft 376 kts 146°
2026-05-01 13:09 60.23152 -133.97614 27665 ft 379 kts 146°
2026-05-01 13:09 60.21028 -133.94457 28140 ft 382 kts 146°
2026-05-01 13:09 60.18855 -133.91233 28626 ft 385 kts 146°
2026-05-01 13:10 60.16689 -133.88024 29105 ft 388 kts 146°
2026-05-01 13:10 60.14538 -133.84844 29576 ft 390 kts 146°
2026-05-01 13:10 60.12335 -133.81592 30030 ft 393 kts 146°
2026-05-01 13:10 60.10123 -133.78332 30440 ft 397 kts 146°
2026-05-01 13:11 60.07890 -133.75046 30810 ft 399 kts 146°
2026-05-01 13:11 60.05645 -133.71749 31181 ft 402 kts 146°
2026-05-01 13:11 60.03383 -133.68432 31543 ft 404 kts 146°
2026-05-01 13:11 60.01106 -133.65099 31896 ft 407 kts 146°
2026-05-01 13:12 59.98814 -133.61750 32238 ft 409 kts 146°
2026-05-01 13:12 59.96508 -133.58385 32592 ft 412 kts 146°
2026-05-01 13:12 59.94188 -133.55005 32912 ft 414 kts 146°
2026-05-01 13:12 59.91849 -133.51604 33239 ft 417 kts 146°
2026-05-01 13:13 59.89500 -133.48195 33565 ft 419 kts 146°
2026-05-01 13:13 59.87137 -133.44773 33882 ft 421 kts 147°
2026-05-01 13:13 59.84756 -133.41339 34186 ft 423 kts 147°
2026-05-01 13:13 59.82366 -133.37898 34431 ft 426 kts 147°
2026-05-01 13:14 59.79956 -133.34437 34655 ft 428 kts 147°
2026-05-01 13:14 59.77530 -133.30957 34864 ft 431 kts 147°
2026-05-01 13:14 59.75091 -133.27462 35096 ft 434 kts 147°
2026-05-01 13:14 59.72632 -133.23946 35304 ft 436 kts 147°
2026-05-01 13:15 59.70165 -133.20422 35520 ft 438 kts 147°
2026-05-01 13:15 59.67679 -133.16879 35715 ft 441 kts 147°
2026-05-01 13:15 59.65185 -133.13331 35918 ft 443 kts 147°
2026-05-01 13:15 59.62671 -133.09760 36121 ft 445 kts 147°
2026-05-01 13:16 59.60144 -133.06178 36317 ft 448 kts 147°
2026-05-01 13:16 59.57608 -133.02591 36499 ft 450 kts 147°
2026-05-01 13:16 59.55057 -132.98988 36681 ft 452 kts 147°
2026-05-01 13:17 59.47327 -132.88113 37219 ft 457 kts 147°
2026-05-01 13:17 59.44725 -132.84464 37246 ft 462 kts 147°
2026-05-01 13:18 59.36721 -132.73506 37261 ft 473 kts 150°
2026-05-01 13:18 59.31076 -132.66806 37251 ft 475 kts 152°
2026-05-01 13:19 59.25368 -132.60218 37247 ft 476 kts 152°
2026-05-01 13:20 59.16835 -132.50243 37249 ft 476 kts 152°
2026-05-01 13:20 59.11164 -132.43585 37240 ft 475 kts 152°
2026-05-01 13:21 59.02672 -132.33658 37239 ft 474 kts 152°
2026-05-01 13:21 58.97019 -132.27087 37250 ft 473 kts 152°
2026-05-01 13:22 58.91375 -132.20552 37245 ft 472 kts 152°
2026-05-01 13:22 58.85727 -132.14039 37241 ft 472 kts 152°
2026-05-01 13:23 58.80081 -132.07552 37238 ft 472 kts 152°
2026-05-01 13:23 58.74443 -132.01099 37247 ft 471 kts 152°
2026-05-01 13:24 58.68798 -131.94663 37242 ft 471 kts 152°
2026-05-01 13:25 58.61287 -131.86137 37244 ft 470 kts 152°
2026-05-01 13:25 58.55641 -131.79756 37247 ft 470 kts 152°
2026-05-01 13:26 58.49998 -131.73402 37241 ft 470 kts 152°
2026-05-01 13:26 58.44358 -131.67075 37245 ft 470 kts 152°
2026-05-01 13:27 58.38703 -131.60753 37239 ft 470 kts 152°
2026-05-01 13:27 58.30298 -131.51061 37239 ft 472 kts 147°
2026-05-01 13:28 58.22418 -131.39760 37232 ft 473 kts 145°
2026-05-01 13:29 58.11931 -131.24689 37235 ft 473 kts 146°
2026-05-01 13:31 57.96101 -131.02446 37235 ft 472 kts 146°
2026-05-01 13:32 57.82879 -130.84053 37230 ft 473 kts 146°
2026-05-01 13:33 57.69615 -130.65771 37236 ft 473 kts 146°
2026-05-01 13:34 57.59024 -130.51296 37232 ft 472 kts 146°
2026-05-01 13:35 57.51051 -130.40469 37235 ft 472 kts 146°
2026-05-01 13:36 57.43080 -130.29705 37239 ft 471 kts 146°
2026-05-01 13:36 57.35099 -130.18985 37237 ft 472 kts 146°
2026-05-01 13:37 57.29778 -130.11871 37233 ft 472 kts 146°
2026-05-01 13:37 57.24453 -130.04778 37241 ft 472 kts 147°
2026-05-01 13:38 57.16464 -129.94184 37250 ft 471 kts 147°
2026-05-01 13:39 57.11140 -129.87155 37249 ft 471 kts 147°
2026-05-01 13:39 57.05807 -129.80141 37255 ft 472 kts 147°
2026-05-01 13:40 57.00460 -129.73133 37254 ft 472 kts 147°
2026-05-01 13:40 56.95103 -129.66136 37261 ft 472 kts 147°
2026-05-01 13:41 56.89740 -129.59158 37247 ft 472 kts 147°
2026-05-01 13:41 56.84377 -129.52202 37249 ft 472 kts 147°
2026-05-01 13:42 56.79016 -129.45272 37270 ft 472 kts 147°
2026-05-01 13:42 56.73653 -129.38370 37266 ft 472 kts 147°
2026-05-01 13:43 56.68277 -129.31478 37264 ft 472 kts 147°
2026-05-01 13:43 56.62901 -129.24607 37261 ft 472 kts 147°
2026-05-01 13:44 56.57524 -129.17756 37266 ft 472 kts 147°
2026-05-01 13:44 56.52144 -129.10924 37268 ft 472 kts 147°
2026-05-01 13:45 56.46793 -129.04154 37257 ft 472 kts 147°
2026-05-01 13:45 56.41411 -128.97368 37254 ft 471 kts 147°
2026-05-01 13:46 56.36025 -128.90602 37252 ft 471 kts 147°
2026-05-01 13:46 56.30646 -128.83868 37250 ft 471 kts 147°
2026-05-01 13:47 56.25258 -128.77146 37254 ft 471 kts 147°
2026-05-01 13:47 56.19867 -128.70443 37250 ft 471 kts 148°
2026-05-01 13:48 56.14461 -128.63746 37249 ft 472 kts 148°
2026-05-01 13:48 56.09047 -128.57062 37242 ft 472 kts 148°
2026-05-01 13:49 56.03634 -128.50402 37252 ft 472 kts 148°
2026-05-01 13:49 55.98224 -128.43768 37254 ft 472 kts 148°
2026-05-01 13:50 55.92806 -128.37149 37257 ft 472 kts 148°
2026-05-01 13:50 55.87382 -128.30544 37251 ft 472 kts 148°
2026-05-01 13:51 55.81920 -128.23916 37247 ft 472 kts 148°
2026-05-01 13:51 55.76484 -128.17343 37256 ft 472 kts 148°
2026-05-01 13:52 55.71076 -128.10825 37251 ft 473 kts 148°
2026-05-01 13:52 55.65631 -128.04285 37254 ft 473 kts 148°
2026-05-01 13:53 55.60184 -127.97767 37252 ft 473 kts 148°
2026-05-01 13:53 55.51997 -127.88009 37252 ft 473 kts 148°
2026-05-01 13:54 55.46532 -127.81523 37251 ft 473 kts 148°
2026-05-01 13:54 55.41068 -127.75060 37253 ft 473 kts 149°
2026-05-01 13:55 55.35604 -127.68619 37243 ft 473 kts 149°
2026-05-01 13:55 55.30136 -127.62195 37255 ft 473 kts 149°
2026-05-01 13:56 55.24658 -127.55782 37241 ft 473 kts 149°
2026-05-01 13:56 55.19172 -127.49381 37248 ft 473 kts 149°
2026-05-01 13:57 55.14611 -127.44075 37250 ft 474 kts 149°
2026-05-01 13:57 55.09120 -127.37707 37233 ft 473 kts 149°
2026-05-01 13:58 55.03628 -127.31359 37233 ft 473 kts 149°
2026-05-01 13:58 54.98133 -127.25029 37217 ft 474 kts 149°
2026-05-01 13:59 54.92622 -127.18701 37219 ft 474 kts 149°
2026-05-01 13:59 54.87103 -127.12386 37209 ft 475 kts 150°
2026-05-01 14:00 54.81574 -127.06079 37210 ft 475 kts 150°
2026-05-01 14:00 54.76049 -126.99798 37217 ft 475 kts 150°
2026-05-01 14:01 54.70513 -126.93526 37223 ft 475 kts 150°
2026-05-01 14:01 54.64982 -126.87279 37231 ft 475 kts 150°
2026-05-01 14:02 54.59448 -126.81049 37242 ft 474 kts 150°
2026-05-01 14:02 54.53914 -126.74840 37251 ft 474 kts 150°
2026-05-01 14:03 54.48370 -126.68638 37247 ft 475 kts 150°
2026-05-01 14:03 54.42636 -126.63169 37244 ft 468 kts 162°
2026-05-01 14:04 54.36563 -126.59199 37248 ft 466 kts 163°
2026-05-01 14:04 54.30518 -126.55346 37240 ft 466 kts 163°
2026-05-01 14:05 54.24413 -126.51396 37252 ft 465 kts 163°
2026-05-01 14:05 54.18409 -126.47475 37257 ft 465 kts 163°
2026-05-01 14:06 54.12370 -126.43527 37260 ft 464 kts 163°
2026-05-01 14:06 54.06329 -126.39591 37257 ft 464 kts 163°
2026-05-01 14:07 54.00290 -126.35669 37253 ft 464 kts 163°
2026-05-01 14:08 53.91241 -126.29819 37255 ft 463 kts 162°
2026-05-01 14:08 53.85213 -126.25937 37253 ft 464 kts 162°
2026-05-01 14:09 53.79178 -126.22063 37248 ft 463 kts 162°
2026-05-01 14:09 53.73111 -126.18180 37253 ft 463 kts 162°
2026-05-01 14:10 53.67081 -126.14333 37243 ft 463 kts 162°
2026-05-01 14:10 53.61055 -126.10499 37245 ft 462 kts 163°
2026-05-01 14:11 53.55069 -126.06703 37240 ft 462 kts 163°
2026-05-01 14:11 53.46034 -126.00995 37246 ft 462 kts 163°
2026-05-01 14:12 53.40021 -125.97210 37246 ft 461 kts 163°
2026-05-01 14:12 53.34005 -125.93435 37246 ft 461 kts 163°
2026-05-01 14:13 53.28974 -125.90286 37244 ft 461 kts 163°
2026-05-01 14:13 53.21991 -125.85931 37255 ft 461 kts 163°
2026-05-01 14:14 53.15972 -125.82188 37253 ft 461 kts 163°
2026-05-01 14:14 53.09960 -125.78461 37253 ft 461 kts 163°
2026-05-01 14:15 53.03939 -125.74740 37238 ft 461 kts 163°
2026-05-01 14:15 52.97914 -125.71027 37234 ft 461 kts 163°
2026-05-01 14:16 52.91888 -125.67324 37226 ft 461 kts 163°
2026-05-01 14:16 52.85871 -125.63638 37222 ft 461 kts 163°
2026-05-01 14:17 52.79860 -125.59966 37211 ft 460 kts 163°
2026-05-01 14:17 52.73849 -125.56305 37211 ft 460 kts 163°
2026-05-01 14:18 52.67847 -125.52661 37207 ft 459 kts 163°
2026-05-01 14:18 52.62862 -125.49642 37205 ft 459 kts 163°
2026-05-01 14:19 52.55858 -125.45413 37206 ft 458 kts 163°
2026-05-01 14:19 52.49874 -125.41811 37203 ft 458 kts 163°
2026-05-01 14:20 52.40899 -125.36429 37198 ft 458 kts 163°
2026-05-01 14:21 52.34916 -125.32854 37198 ft 457 kts 163°
2026-05-01 14:21 52.28932 -125.29288 37185 ft 457 kts 163°
2026-05-01 14:22 52.19963 -125.23963 37186 ft 457 kts 164°
2026-05-01 14:22 52.13985 -125.20427 37182 ft 456 kts 164°
2026-05-01 14:23 52.08017 -125.16906 37176 ft 456 kts 164°
2026-05-01 14:23 52.02059 -125.13401 37172 ft 455 kts 164°
2026-05-01 14:24 51.96114 -125.09913 37167 ft 454 kts 164°
2026-05-01 14:24 51.90171 -125.06438 37165 ft 453 kts 164°
2026-05-01 14:25 51.84230 -125.02974 37167 ft 453 kts 164°
2026-05-01 14:25 51.78333 -124.99544 37167 ft 453 kts 164°
2026-05-01 14:26 51.69430 -124.94384 37158 ft 453 kts 164°
2026-05-01 14:27 51.63502 -124.90960 37156 ft 452 kts 164°
2026-05-01 14:27 51.57574 -124.87545 37148 ft 452 kts 164°
2026-05-01 14:28 51.48653 -124.82424 37139 ft 451 kts 164°
2026-05-01 14:28 51.42773 -124.79060 37149 ft 450 kts 164°
2026-05-01 14:29 51.36870 -124.75694 37134 ft 450 kts 164°
2026-05-01 14:30 51.26005 -124.69522 37120 ft 451 kts 164°
2026-05-01 14:31 51.17151 -124.64513 37121 ft 450 kts 165°
2026-05-01 14:31 51.11258 -124.61191 37113 ft 449 kts 165°
2026-05-01 14:32 51.05362 -124.57876 37117 ft 449 kts 165°
2026-05-01 14:32 50.99477 -124.54576 37111 ft 448 kts 165°
2026-05-01 14:33 50.93588 -124.51284 37112 ft 448 kts 165°
2026-05-01 14:33 50.87703 -124.48001 37092 ft 448 kts 165°
2026-05-01 14:34 50.81806 -124.44722 36718 ft 449 kts 165°
2026-05-01 14:34 50.78872 -124.43092 36281 ft 443 kts 165°
2026-05-01 14:34 50.76019 -124.41507 35874 ft 438 kts 165°
2026-05-01 14:34 50.73158 -124.39921 35388 ft 434 kts 165°
2026-05-01 14:35 50.70285 -124.38332 34935 ft 429 kts 165°
2026-05-01 14:35 50.67518 -124.36804 34482 ft 425 kts 166°
2026-05-01 14:35 50.64735 -124.35269 34038 ft 421 kts 166°
2026-05-01 14:35 50.61973 -124.33749 33525 ft 418 kts 166°
2026-05-01 14:36 50.59238 -124.32245 33078 ft 414 kts 166°
2026-05-01 14:36 50.56534 -124.30760 32616 ft 411 kts 165°
2026-05-01 14:36 50.53844 -124.29284 32181 ft 407 kts 165°
2026-05-01 14:36 50.51182 -124.27825 31725 ft 404 kts 165°
2026-05-01 14:37 50.48544 -124.26379 31287 ft 400 kts 165°
2026-05-01 14:37 50.45927 -124.24948 30885 ft 396 kts 165°
2026-05-01 14:37 50.43340 -124.23515 30467 ft 394 kts 162°
2026-05-01 14:37 50.40840 -124.21746 30028 ft 394 kts 157°
2026-05-01 14:38 50.38423 -124.19745 29555 ft 392 kts 155°
2026-05-01 14:38 50.36045 -124.17688 29111 ft 388 kts 155°
2026-05-01 14:38 50.33690 -124.15654 28668 ft 384 kts 155°
2026-05-01 14:38 50.31355 -124.13668 28252 ft 380 kts 156°
2026-05-01 14:39 50.29028 -124.11719 27813 ft 377 kts 156°
2026-05-01 14:39 50.26691 -124.09785 27372 ft 374 kts 156°
2026-05-01 14:39 50.24395 -124.07897 26966 ft 371 kts 156°
2026-05-01 14:39 50.22113 -124.06027 26545 ft 369 kts 156°
2026-05-01 14:40 50.19848 -124.04176 26135 ft 367 kts 156°
2026-05-01 14:40 50.17592 -124.02333 25721 ft 364 kts 156°
2026-05-01 14:40 50.15356 -124.00509 25319 ft 362 kts 156°
2026-05-01 14:40 50.13130 -123.98695 24895 ft 359 kts 156°
2026-05-01 14:41 50.10923 -123.96897 24506 ft 357 kts 156°
2026-05-01 14:41 50.08751 -123.95130 24117 ft 355 kts 156°
2026-05-01 14:41 50.06558 -123.93349 23686 ft 355 kts 156°
2026-05-01 14:41 50.04378 -123.91579 23213 ft 352 kts 156°
2026-05-01 14:42 50.02214 -123.89824 22793 ft 349 kts 156°
2026-05-01 14:42 50.00063 -123.88082 22374 ft 347 kts 156°
2026-05-01 14:42 49.97925 -123.86353 21930 ft 344 kts 156°
2026-05-01 14:42 49.95829 -123.84656 21622 ft 338 kts 156°
2026-05-01 14:43 49.93736 -123.82968 21193 ft 338 kts 156°
2026-05-01 14:43 49.91654 -123.81290 20792 ft 336 kts 156°
2026-05-01 14:43 49.89586 -123.79625 20409 ft 334 kts 156°
2026-05-01 14:43 49.87530 -123.77969 20025 ft 331 kts 156°
2026-05-01 14:44 49.85490 -123.76328 19653 ft 330 kts 156°
2026-05-01 14:44 49.81419 -123.73133 18899 ft 325 kts 163°
2026-05-01 14:44 49.79261 -123.72197 18523 ft 320 kts 171°
2026-05-01 14:45 49.77086 -123.71478 18098 ft 319 kts 172°
2026-05-01 14:45 49.72754 -123.70013 17239 ft 319 kts 171°
2026-05-01 14:45 49.70594 -123.69246 16829 ft 318 kts 170°
2026-05-01 14:46 49.68445 -123.68474 16435 ft 315 kts 170°
2026-05-01 14:46 49.64190 -123.66951 15682 ft 312 kts 170°
2026-05-01 14:46 49.62076 -123.66199 15312 ft 310 kts 170°
2026-05-01 14:47 49.59981 -123.65454 14940 ft 308 kts 170°
2026-05-01 14:47 49.57890 -123.64710 14578 ft 307 kts 170°
2026-05-01 14:47 49.55810 -123.63972 14205 ft 306 kts 169°
2026-05-01 14:48 49.51741 -123.62526 13797 ft 292 kts 170°
2026-05-01 14:48 49.49763 -123.61824 13456 ft 290 kts 169°
2026-05-01 14:48 49.45855 -123.60437 12793 ft 287 kts 169°
2026-05-01 14:49 49.41984 -123.59065 12139 ft 284 kts 169°
2026-05-01 14:49 49.38150 -123.57709 11481 ft 281 kts 169°
2026-05-01 14:50 49.35804 -123.56023 11035 ft 284 kts 139°
2026-05-01 14:50 49.33901 -123.48590 10388 ft 293 kts 100°
2026-05-01 14:51 49.33613 -123.45512 10122 ft 290 kts 100°
2026-05-01 14:51 49.33021 -123.39469 9569 ft 283 kts 101°
2026-05-01 14:52 49.32411 -123.33611 9058 ft 274 kts 101°
2026-05-01 14:52 49.32109 -123.30736 8790 ft 271 kts 101°
2026-05-01 14:52 49.31511 -123.25092 8273 ft 266 kts 101°
2026-05-01 14:53 49.31215 -123.22307 8026 ft 263 kts 101°
2026-05-01 14:53 49.30921 -123.19556 7775 ft 260 kts 101°
2026-05-01 14:53 49.30631 -123.16834 7536 ft 257 kts 101°
2026-05-01 14:53 49.30343 -123.14145 7306 ft 255 kts 101°
2026-05-01 14:54 49.30056 -123.11482 7074 ft 252 kts 101°
2026-05-01 14:54 49.29774 -123.08842 6837 ft 250 kts 101°
2026-05-01 14:54 49.29493 -123.06229 6615 ft 247 kts 101°
2026-05-01 14:54 49.29214 -123.03635 6394 ft 246 kts 101°
2026-05-01 14:55 49.28935 -123.01061 6163 ft 245 kts 101°
2026-05-01 14:55 49.28635 -122.98500 5965 ft 242 kts 104°
2026-05-01 14:55 49.28220 -122.96033 5819 ft 238 kts 106°
2026-05-01 14:55 49.27779 -122.93614 5681 ft 233 kts 107°
2026-05-01 14:56 49.27348 -122.91256 5552 ft 229 kts 107°
2026-05-01 14:56 49.26923 -122.88912 5430 ft 228 kts 106°
2026-05-01 14:56 49.26503 -122.86568 5318 ft 228 kts 106°
2026-05-01 14:56 49.26086 -122.84225 5199 ft 229 kts 106°
2026-05-01 14:57 49.25667 -122.81875 5058 ft 229 kts 106°
2026-05-01 14:57 49.24813 -122.77178 4803 ft 228 kts 112°
2026-05-01 14:57 49.23888 -122.75278 4664 ft 223 kts 147°
2026-05-01 14:58 49.22449 -122.74538 4563 ft 219 kts 180°
2026-05-01 14:58 49.20979 -122.75008 4468 ft 216 kts 206°
2026-05-01 14:58 49.19726 -122.76130 4396 ft 203 kts 213°
2026-05-01 14:58 49.18576 -122.77294 4312 ft 194 kts 213°
2026-05-01 14:59 49.17459 -122.78428 4235 ft 193 kts 214°
2026-05-01 14:59 49.16541 -122.79964 4025 ft 196 kts 242°
2026-05-01 14:59 49.16167 -122.81920 3995 ft 191 kts 268°
2026-05-01 14:59 49.16425 -122.83922 4010 ft 196 kts 284°
2026-05-01 15:00 49.16904 -122.87839 3683 ft 173 kts 278°
2026-05-01 15:00 49.17093 -122.89564 3446 ft 157 kts 279°
2026-05-01 15:00 49.17265 -122.91129 3240 ft 144 kts 279°
2026-05-01 15:01 49.17434 -122.92651 3070 ft 147 kts 279°
2026-05-01 15:01 49.17606 -122.94209 2876 ft 150 kts 279°
2026-05-01 15:01 49.17781 -122.95776 2676 ft 149 kts 279°
2026-05-01 15:01 49.17955 -122.97338 2470 ft 148 kts 279°
2026-05-01 15:02 49.18128 -122.98890 2278 ft 148 kts 279°
2026-05-01 15:02 49.18186 -122.99415 2208 ft 148 kts 279°
2026-05-01 15:02 49.18473 -123.01976 1880 ft 147 kts 280°
2026-05-01 15:02 49.18641 -123.03512 1680 ft 146 kts 279°
2026-05-01 15:03 49.18800 -123.05033 1509 ft 144 kts 280°
2026-05-01 15:03 49.18973 -123.06549 1328 ft 145 kts 281°
2026-05-01 15:03 49.19087 -123.07548 1201 ft 144 kts 280°
2026-05-01 15:03 49.19257 -123.09044 980 ft 141 kts 281°
2026-05-01 15:04 49.19426 -123.10514 774 ft 139 kts 280°
2026-05-01 15:04 49.19593 -123.11972 584 ft 139 kts 281°
2026-05-01 15:04 49.19754 -123.13428 393 ft 138 kts 281°
2026-05-01 15:04 49.19919 -123.14852 226 ft 135 kts 281°
2026-05-01 15:05 49.20082 -123.16287 46 ft 137 kts 280°
2026-05-01 15:05 49.20232 -123.17574 28 ft 96 kts 279°
2026-05-01 15:05 49.20310 -123.18281 24 ft 46 kts 277°
2026-05-01 15:05 49.20266 -123.18626 24 ft 19 kts 250°
2026-05-01 15:06 49.20242 -123.18724 25 ft 8 kts 250°
2026-05-01 15:06 49.20224 -123.18801 24 ft 7 kts 250°
2026-05-01 15:06 49.20197 -123.18865 25 ft 7 kts 213°
2026-05-01 15:06 49.20161 -123.18832 24 ft 7 kts 109°
2026-05-01 15:07 49.20152 -123.18760 24 ft 7 kts 100°
2026-05-01 15:07 49.20144 -123.18688 26 ft 7 kts 99°
2026-05-01 15:07 49.20135 -123.18606 24 ft 8 kts 99°
2026-05-01 15:07 49.20119 -123.18525 25 ft 8 kts 127°
2026-05-01 15:08 49.20068 -123.18507 24 ft 8 kts 191°
2026-05-01 15:08 49.20015 -123.18521 25 ft 8 kts 188°
2026-05-01 15:08 49.19964 -123.18533 26 ft 7 kts 190°
2026-05-01 15:08 49.19915 -123.18548 24 ft 7 kts 191°
2026-05-01 15:09 49.19863 -123.18562 28 ft 8 kts 190°
2026-05-01 15:09 49.19801 -123.18578 25 ft 10 kts 190°
2026-05-01 15:09 49.19741 -123.18620 27 ft 10 kts 220°
2026-05-01 15:09 49.19686 -123.18676 26 ft 9 kts 200°
2026-05-01 15:10 49.19621 -123.18697 26 ft 9 kts 187°
2026-05-01 15:10 49.19494 -123.18730 26 ft 10 kts 190°
2026-05-01 15:10 49.19428 -123.18732 26 ft 10 kts 159°
2026-05-01 15:11 49.19369 -123.18692 25 ft 9 kts 178°
2026-05-01 15:11 49.19244 -123.18725 26 ft 9 kts 190°
2026-05-01 15:11 49.19185 -123.18723 24 ft 9 kts 149°
2026-05-01 15:12 49.19139 -123.18667 29 ft 8 kts 141°
2026-05-01 15:12 49.19032 -123.18538 25 ft 12 kts 142°
2026-05-01 15:12 49.18965 -123.18454 24 ft 13 kts 130°
2026-05-01 15:13 49.18902 -123.17983 24 ft 17 kts 99°
2026-05-01 15:14 49.18860 -123.17616 25 ft 14 kts 99°
2026-05-01 15:14 49.18844 -123.17478 27 ft 11 kts 100°
2026-05-01 15:14 49.18880 -123.17402 27 ft 5 kts 341°
2026-05-01 15:15 49.18920 -123.17424 26 ft 1 kts 340°
2026-05-01 15:15 49.18932 -123.17430 25 ft 0 kts 340°